KAY108 LICR-HLLB

Flight info

Callsign KAY108
Flight time 1h 9m
Altitude 39000
Route BERMI DCT GODAK/N0456F290 M980 BONAR M7 RIGEM RIGEM1E
Aircraft A319/M-SDE3FGHIRWY/LB1

Departure

Time 2026-05-05 18:51
Airport Reggio Calabria Airport (LICR)

Arrival

Time 2026-05-05 20:01
Airport Benina International Airport (HLLB)
Time Latitude Longitude Altitude Speed Heading
2026-05-05 18:21 38.07410 15.65270 50 ft 0 kts 122°
2026-05-05 18:46 38.07408 15.65275 50 ft 2 kts 122°
2026-05-05 18:47 38.07397 15.65276 47 ft 2 kts 222°
2026-05-05 18:47 38.07380 15.65249 48 ft 6 kts 211°
2026-05-05 18:47 38.07342 15.65230 50 ft 6 kts 224°
2026-05-05 18:47 38.07326 15.65192 50 ft 2 kts 245°
2026-05-05 18:48 38.07312 15.65159 48 ft 7 kts 242°
2026-05-05 18:48 38.07286 15.65076 48 ft 13 kts 270°
2026-05-05 18:48 38.07359 15.65004 50 ft 15 kts 333°
2026-05-05 18:48 38.07458 15.64940 52 ft 17 kts 333°
2026-05-05 18:49 38.07570 15.64867 57 ft 19 kts 333°
2026-05-05 18:49 38.07691 15.64789 63 ft 20 kts 333°
2026-05-05 18:49 38.07816 15.64707 66 ft 20 kts 333°
2026-05-05 18:49 38.07941 15.64626 62 ft 20 kts 333°
2026-05-05 18:50 38.08049 15.64555 83 ft 13 kts 333°
2026-05-05 18:50 38.08090 15.64503 84 ft 7 kts 322°
2026-05-05 18:50 38.08088 15.64532 87 ft 7 kts 146°
2026-05-05 18:50 38.07992 15.64592 71 ft 32 kts 153°
2026-05-05 18:51 38.07488 15.64919 54 ft 127 kts 153°
2026-05-05 18:51 38.06596 15.65484 641 ft 147 kts 159°
2026-05-05 18:51 38.05579 15.65634 1481 ft 153 kts 192°
2026-05-05 18:51 38.04629 15.65024 2436 ft 154 kts 212°
2026-05-05 18:52 38.03724 15.64325 3388 ft 152 kts 210°
2026-05-05 18:52 38.02762 15.63608 4006 ft 170 kts 210°
2026-05-05 18:52 38.01675 15.62804 4609 ft 193 kts 210°
2026-05-05 18:52 38.00437 15.61910 5308 ft 213 kts 210°
2026-05-05 18:53 37.99138 15.60963 6351 ft 217 kts 211°
2026-05-05 18:53 37.97816 15.59994 7366 ft 221 kts 211°
2026-05-05 18:53 37.96478 15.59010 8428 ft 223 kts 212°
2026-05-05 18:53 37.95136 15.58017 9557 ft 223 kts 213°
2026-05-05 18:54 37.93794 15.57023 10613 ft 225 kts 214°
2026-05-05 18:54 37.92442 15.56015 11615 ft 227 kts 214°
2026-05-05 18:54 37.91070 15.54994 12629 ft 230 kts 214°
2026-05-05 18:54 37.89676 15.53956 13640 ft 235 kts 214°
2026-05-05 18:55 37.88118 15.53107 14331 ft 257 kts 203°
2026-05-05 18:55 37.86353 15.52352 14859 ft 280 kts 202°
2026-05-05 18:55 37.84422 15.51550 15302 ft 305 kts 201°
2026-05-05 18:55 37.82302 15.50764 15686 ft 332 kts 193°
2026-05-05 18:56 37.79896 15.50850 15995 ft 365 kts 168°
2026-05-05 18:56 37.77615 15.52321 16580 ft 384 kts 144°
2026-05-05 18:56 37.75539 15.54499 17394 ft 391 kts 141°
2026-05-05 18:56 37.73458 15.56751 18251 ft 397 kts 141°
2026-05-05 18:57 37.71355 15.59045 18992 ft 402 kts 141°
2026-05-05 18:57 37.69223 15.61373 19718 ft 408 kts 141°
2026-05-05 18:57 37.67064 15.63724 20440 ft 413 kts 141°
2026-05-05 18:57 37.64873 15.66101 21175 ft 417 kts 142°
2026-05-05 18:58 37.62657 15.68495 21928 ft 421 kts 142°
2026-05-05 18:58 37.60416 15.70906 22642 ft 425 kts 142°
2026-05-05 18:58 37.58150 15.73337 23300 ft 430 kts 142°
2026-05-05 18:58 37.55862 15.75798 23901 ft 435 kts 142°
2026-05-05 18:59 37.53554 15.78307 24440 ft 440 kts 142°
2026-05-05 18:59 37.51232 15.80835 24992 ft 444 kts 142°
2026-05-05 18:59 37.48885 15.83381 25536 ft 447 kts 142°
2026-05-05 18:59 37.46511 15.85944 26072 ft 451 kts 142°
2026-05-05 19:00 37.44119 15.88517 26601 ft 454 kts 142°
2026-05-05 19:00 37.41703 15.91109 27120 ft 458 kts 142°
2026-05-05 19:00 37.39264 15.93720 27642 ft 462 kts 142°
2026-05-05 19:00 37.36808 15.96343 28154 ft 466 kts 142°
2026-05-05 19:01 37.34328 15.98988 28657 ft 469 kts 142°
2026-05-05 19:01 37.31831 16.01648 29150 ft 472 kts 142°
2026-05-05 19:01 37.29317 16.04324 29633 ft 475 kts 142°
2026-05-05 19:01 37.26789 16.07012 30095 ft 478 kts 141°
2026-05-05 19:02 37.24240 16.09718 30473 ft 482 kts 142°
2026-05-05 19:02 37.21676 16.12439 30872 ft 484 kts 142°
2026-05-05 19:02 37.19099 16.15175 31251 ft 486 kts 142°
2026-05-05 19:02 37.16510 16.17923 31635 ft 489 kts 141°
2026-05-05 19:03 37.13907 16.20677 32204 ft 488 kts 142°
2026-05-05 19:03 37.11319 16.23415 32796 ft 486 kts 142°
2026-05-05 19:03 37.08743 16.26141 33363 ft 484 kts 142°
2026-05-05 19:03 37.06165 16.28832 33916 ft 482 kts 143°
2026-05-05 19:04 37.03570 16.31490 34418 ft 481 kts 143°
2026-05-05 19:04 37.01021 16.34098 34910 ft 479 kts 143°
2026-05-05 19:04 36.98450 16.36752 35346 ft 479 kts 142°
2026-05-05 19:04 36.95886 16.39427 35735 ft 481 kts 142°
2026-05-05 19:05 36.93330 16.42116 36152 ft 481 kts 142°
2026-05-05 19:05 36.90777 16.44813 36578 ft 480 kts 142°
2026-05-05 19:05 36.88237 16.47524 37005 ft 480 kts 142°
2026-05-05 19:05 36.85713 16.50256 37439 ft 480 kts 142°
2026-05-05 19:06 36.83189 16.52981 37857 ft 479 kts 142°
2026-05-05 19:06 36.80660 16.55681 38280 ft 479 kts 142°
2026-05-05 19:06 36.78117 16.58358 38699 ft 478 kts 143°
2026-05-05 19:06 36.75565 16.61018 38958 ft 479 kts 143°
2026-05-05 19:07 36.73002 16.63675 39084 ft 479 kts 143°
2026-05-05 19:07 36.71304 16.65436 39119 ft 479 kts 143°
2026-05-05 19:07 36.65327 16.71645 39120 ft 479 kts 143°
2026-05-05 19:08 36.60203 16.76982 39120 ft 481 kts 143°
2026-05-05 19:08 36.55075 16.82318 39120 ft 481 kts 143°
2026-05-05 19:09 36.49938 16.87649 39101 ft 481 kts 143°
2026-05-05 19:09 36.44796 16.92973 39114 ft 481 kts 143°
2026-05-05 19:10 36.40520 16.97391 39126 ft 481 kts 143°
2026-05-05 19:10 36.35369 17.02706 39132 ft 482 kts 143°
2026-05-05 19:11 36.30212 17.08018 39137 ft 482 kts 143°
2026-05-05 19:11 36.25045 17.13330 39128 ft 483 kts 143°
2026-05-05 19:12 36.19873 17.18639 39113 ft 483 kts 143°
2026-05-05 19:12 36.14694 17.23947 39121 ft 483 kts 143°
2026-05-05 19:13 36.09508 17.29251 39123 ft 484 kts 143°
2026-05-05 19:13 36.04325 17.34543 39127 ft 483 kts 143°
2026-05-05 19:14 35.99134 17.39832 39138 ft 484 kts 143°
2026-05-05 19:14 35.93936 17.45123 39116 ft 485 kts 143°
2026-05-05 19:15 35.88731 17.50410 39123 ft 485 kts 143°
2026-05-05 19:15 35.83509 17.55683 39126 ft 485 kts 144°
2026-05-05 19:16 35.78232 17.60868 39131 ft 485 kts 144°
2026-05-05 19:16 35.73005 17.66039 39136 ft 486 kts 144°
2026-05-05 19:17 35.67771 17.71306 39139 ft 486 kts 143°
2026-05-05 19:17 35.62550 17.76588 39132 ft 486 kts 143°
2026-05-05 19:18 35.57312 17.81860 39135 ft 487 kts 144°
2026-05-05 19:18 35.52060 17.87124 39139 ft 487 kts 144°
2026-05-05 19:19 35.46803 17.92387 39148 ft 488 kts 144°
2026-05-05 19:19 35.41542 17.97647 39150 ft 488 kts 144°
2026-05-05 19:20 35.36278 18.02900 39143 ft 488 kts 144°
2026-05-05 19:20 35.31004 18.08155 39152 ft 489 kts 144°
2026-05-05 19:21 35.25727 18.13404 39156 ft 489 kts 144°
2026-05-05 19:21 35.20443 18.18646 39158 ft 489 kts 144°
2026-05-05 19:22 35.15167 18.23877 39155 ft 488 kts 144°
2026-05-05 19:22 35.09884 18.29105 39157 ft 489 kts 144°
2026-05-05 19:23 35.04599 18.34327 39142 ft 489 kts 144°
2026-05-05 19:23 34.99308 18.39544 39142 ft 489 kts 144°
2026-05-05 19:24 34.94009 18.44760 39153 ft 490 kts 144°
2026-05-05 19:24 34.88705 18.49974 39151 ft 490 kts 144°
2026-05-05 19:25 34.83392 18.55185 39156 ft 491 kts 144°
2026-05-05 19:25 34.78077 18.60388 39141 ft 491 kts 144°
2026-05-05 19:26 34.72753 18.65593 39137 ft 491 kts 144°
2026-05-05 19:26 34.67422 18.70798 39139 ft 491 kts 144°
2026-05-05 19:27 34.62081 18.75997 39150 ft 493 kts 144°
2026-05-05 19:27 34.56731 18.81200 39160 ft 493 kts 144°
2026-05-05 19:28 34.51374 18.86404 39164 ft 493 kts 144°
2026-05-05 19:28 34.46012 18.91603 39165 ft 494 kts 144°
2026-05-05 19:29 34.40641 18.96801 39171 ft 495 kts 144°
2026-05-05 19:29 34.35039 19.01547 39174 ft 488 kts 157°
2026-05-05 19:30 34.28718 19.04182 39180 ft 476 kts 175°
2026-05-05 19:30 34.22191 19.05186 39158 ft 473 kts 179°
2026-05-05 19:31 34.15658 19.06146 39154 ft 473 kts 179°
2026-05-05 19:31 34.09163 19.07104 39154 ft 474 kts 179°
2026-05-05 19:32 34.02612 19.08063 39160 ft 474 kts 179°
2026-05-05 19:32 33.96060 19.09020 39149 ft 474 kts 179°
2026-05-05 19:33 33.89503 19.09976 39156 ft 475 kts 179°
2026-05-05 19:33 33.82950 19.10929 39154 ft 474 kts 179°
2026-05-05 19:34 33.76392 19.11882 39163 ft 475 kts 179°
2026-05-05 19:35 33.66546 19.13307 39146 ft 476 kts 179°
2026-05-05 19:35 33.59972 19.14258 39154 ft 476 kts 179°
2026-05-05 19:36 33.53393 19.15209 39155 ft 476 kts 179°
2026-05-05 19:36 33.46814 19.16159 39130 ft 476 kts 179°
2026-05-05 19:37 33.40231 19.17108 39139 ft 476 kts 179°
2026-05-05 19:37 33.33644 19.18054 39140 ft 477 kts 179°
2026-05-05 19:38 33.27054 19.19000 39145 ft 478 kts 179°
2026-05-05 19:38 33.20451 19.19947 39135 ft 478 kts 179°
2026-05-05 19:39 33.13837 19.20894 39145 ft 479 kts 179°
2026-05-05 19:39 33.10538 19.21419 38892 ft 479 kts 177°
2026-05-05 19:39 33.07246 19.22090 38172 ft 480 kts 175°
2026-05-05 19:39 33.03958 19.22802 37431 ft 480 kts 175°
2026-05-05 19:40 33.00670 19.23468 36690 ft 478 kts 176°
2026-05-05 19:40 32.97385 19.24055 35949 ft 477 kts 177°
2026-05-05 19:40 32.94103 19.24571 35183 ft 476 kts 178°
2026-05-05 19:40 32.90816 19.25043 34392 ft 476 kts 178°
2026-05-05 19:41 32.87532 19.25568 33508 ft 478 kts 173°
2026-05-05 19:41 32.84309 19.26632 32587 ft 484 kts 163°
2026-05-05 19:41 32.81253 19.28344 31612 ft 489 kts 153°
2026-05-05 19:41 32.78451 19.30660 30618 ft 493 kts 142°
2026-05-05 19:42 32.75982 19.33503 29565 ft 496 kts 132°
2026-05-05 19:42 32.73845 19.36683 28749 ft 489 kts 129°
2026-05-05 19:42 32.71746 19.39825 27930 ft 482 kts 129°
2026-05-05 19:42 32.69659 19.42912 27134 ft 476 kts 130°
2026-05-05 19:43 32.67641 19.45998 26385 ft 471 kts 127°
2026-05-05 19:43 32.65704 19.49110 25415 ft 470 kts 127°
2026-05-05 19:43 32.63766 19.52233 24493 ft 469 kts 127°
2026-05-05 19:43 32.61825 19.55334 23423 ft 469 kts 128°
2026-05-05 19:44 32.59851 19.58408 22382 ft 468 kts 128°
2026-05-05 19:44 32.57816 19.61390 21347 ft 464 kts 130°
2026-05-05 19:44 32.55724 19.64315 20313 ft 464 kts 131°
2026-05-05 19:44 32.53647 19.67211 19453 ft 459 kts 130°
2026-05-05 19:45 32.51594 19.70073 18634 ft 453 kts 130°
2026-05-05 19:45 32.49566 19.72897 17740 ft 447 kts 130°
2026-05-05 19:45 32.47562 19.75687 16908 ft 442 kts 130°
2026-05-05 19:45 32.45584 19.78440 16150 ft 437 kts 130°
2026-05-05 19:46 32.43623 19.81168 15454 ft 432 kts 130°
2026-05-05 19:46 32.41686 19.83865 14789 ft 428 kts 130°
2026-05-05 19:46 32.39799 19.86569 14125 ft 424 kts 129°
2026-05-05 19:46 32.37937 19.89249 13393 ft 419 kts 129°
2026-05-05 19:47 32.36099 19.91895 12622 ft 414 kts 129°
2026-05-05 19:47 32.34284 19.94505 11869 ft 408 kts 129°
2026-05-05 19:47 32.32505 19.97038 11101 ft 403 kts 130°
2026-05-05 19:47 32.30724 19.99512 10824 ft 384 kts 130°
2026-05-05 19:48 32.29040 20.01850 10710 ft 363 kts 130°
2026-05-05 19:48 32.27455 20.04071 10591 ft 344 kts 129°
2026-05-05 19:48 32.25967 20.06205 10472 ft 329 kts 129°
2026-05-05 19:48 32.24544 20.08249 10352 ft 315 kts 129°
2026-05-05 19:49 32.23174 20.10215 10104 ft 306 kts 129°
2026-05-05 19:49 32.22264 20.11523 9832 ft 303 kts 129°
2026-05-05 19:49 32.20497 20.14060 9246 ft 301 kts 129°
2026-05-05 19:49 32.19165 20.15953 8843 ft 298 kts 130°
2026-05-05 19:50 32.17830 20.17805 8449 ft 294 kts 130°
2026-05-05 19:50 32.16511 20.19631 8034 ft 291 kts 130°
2026-05-05 19:50 32.15202 20.21442 7624 ft 289 kts 130°
2026-05-05 19:50 32.13901 20.23244 7233 ft 287 kts 130°
2026-05-05 19:51 32.12630 20.25003 7068 ft 274 kts 130°
2026-05-05 19:51 32.11405 20.26655 6952 ft 262 kts 135°
2026-05-05 19:51 32.09904 20.27763 6842 ft 250 kts 156°
2026-05-05 19:51 32.08331 20.28538 6716 ft 240 kts 158°
2026-05-05 19:52 32.06816 20.29254 6608 ft 230 kts 158°
2026-05-05 19:52 32.05383 20.29988 6490 ft 220 kts 153°
2026-05-05 19:52 32.04053 20.30817 6342 ft 213 kts 151°
2026-05-05 19:52 32.02757 20.31647 6121 ft 211 kts 151°
2026-05-05 19:53 32.01450 20.32396 5878 ft 209 kts 165°
2026-05-05 19:53 32.00024 20.32465 5634 ft 205 kts 185°
2026-05-05 19:53 31.98613 20.32287 5405 ft 203 kts 187°
2026-05-05 19:53 31.97218 20.32084 5199 ft 200 kts 187°
2026-05-05 19:54 31.95850 20.31883 4952 ft 193 kts 187°
2026-05-05 19:54 31.94551 20.31692 4754 ft 185 kts 187°
2026-05-05 19:54 31.93710 20.31569 4574 ft 183 kts 186°
2026-05-05 19:54 31.92457 20.31613 4256 ft 182 kts 161°
2026-05-05 19:55 31.91521 20.32562 3959 ft 182 kts 119°
2026-05-05 19:55 31.91385 20.33988 3797 ft 176 kts 78°
2026-05-05 19:55 31.91870 20.35282 3667 ft 170 kts 62°
2026-05-05 19:55 31.92754 20.36132 3543 ft 165 kts 26°
2026-05-05 19:56 31.94171 20.36675 3375 ft 159 kts 14°
2026-05-05 19:56 31.94905 20.36610 3293 ft 157 kts 344°
2026-05-05 19:56 31.95892 20.36099 3169 ft 154 kts 335°
2026-05-05 19:56 31.96840 20.35513 3047 ft 153 kts 335°
2026-05-05 19:57 31.97774 20.34919 2916 ft 152 kts 333°
2026-05-05 19:57 31.98691 20.34332 2786 ft 148 kts 334°
2026-05-05 19:57 31.99575 20.33768 2627 ft 142 kts 334°
2026-05-05 19:57 32.00420 20.33227 2405 ft 132 kts 334°
2026-05-05 19:58 32.01206 20.32732 2247 ft 126 kts 337°
2026-05-05 19:58 32.01961 20.32254 2086 ft 124 kts 338°
2026-05-05 19:58 32.02717 20.31771 1870 ft 122 kts 338°
2026-05-05 19:58 32.03456 20.31293 1633 ft 121 kts 337°
2026-05-05 19:59 32.04196 20.30822 1422 ft 121 kts 337°
2026-05-05 19:59 32.04926 20.30329 1261 ft 122 kts 332°
2026-05-05 19:59 32.05592 20.29694 1078 ft 123 kts 322°
2026-05-05 19:59 32.06264 20.29073 871 ft 122 kts 332°
2026-05-05 20:00 32.06989 20.28573 692 ft 120 kts 334°
2026-05-05 20:00 32.07714 20.28089 530 ft 120 kts 332°
2026-05-05 20:00 32.08432 20.27610 421 ft 111 kts 332°
2026-05-05 20:00 32.08974 20.27249 415 ft 62 kts 330°
2026-05-05 20:01 32.09259 20.27056 416 ft 36 kts 330°
2026-05-05 20:01 32.09469 20.26915 412 ft 34 kts 330°
2026-05-05 20:01 32.09669 20.26779 415 ft 33 kts 330°
2026-05-05 20:01 32.09865 20.26646 413 ft 33 kts 330°
2026-05-05 20:02 32.10062 20.26513 414 ft 33 kts 329°
2026-05-05 20:02 32.10257 20.26382 411 ft 32 kts 330°
2026-05-05 20:02 32.10403 20.26282 415 ft 13 kts 321°
2026-05-05 20:02 32.10436 20.26175 416 ft 16 kts 269°
2026-05-05 20:03 32.10374 20.26058 414 ft 19 kts 213°
2026-05-05 20:03 32.10249 20.26061 413 ft 14 kts 150°
2026-05-05 20:03 32.10169 20.26115 413 ft 15 kts 150°
2026-05-05 20:03 32.10068 20.26184 415 ft 19 kts 151°
2026-05-05 20:04 32.09946 20.26266 412 ft 22 kts 150°
2026-05-05 20:04 32.09807 20.26362 413 ft 25 kts 149°
2026-05-05 20:04 32.09650 20.26467 408 ft 27 kts 153°
2026-05-05 20:04 32.09480 20.26581 415 ft 29 kts 150°
2026-05-05 20:05 32.09299 20.26703 410 ft 26 kts 150°
2026-05-05 20:05 32.09138 20.26811 413 ft 28 kts 149°
2026-05-05 20:05 32.08962 20.26929 415 ft 30 kts 151°
2026-05-05 20:05 32.08859 20.26998 415 ft 14 kts 150°
2026-05-05 20:06 32.08787 20.27037 411 ft 11 kts 176°
2026-05-05 20:06 32.08751 20.26962 415 ft 13 kts 264°
2026-05-05 20:06 32.08742 20.26837 415 ft 17 kts 265°
2026-05-05 20:06 32.08732 20.26694 415 ft 9 kts 265°
2026-05-05 20:07 32.08760 20.26643 408 ft 9 kts 316°
2026-05-05 20:07 32.08820 20.26583 413 ft 12 kts 340°
2026-05-05 20:07 32.08876 20.26550 411 ft 8 kts 280°
2026-05-05 20:07 32.08868 20.26468 409 ft 11 kts 263°
2026-05-05 20:08 32.08828 20.26460 409 ft 8 kts 126°
2026-05-05 20:08 32.08834 20.26480 415 ft 0 kts 36°